TimeEDT,TemperatureF,Dew PointF,Humidity,Sea Level PressureIn,VisibilityMPH,Wind Direction,Wind SpeedMPH,Gust SpeedMPH,PrecipitationIn,Events,Conditions,WindDirDegrees,DateUTC
12:54 AM,41.0,39.0,93,30.22,8.0,West,3.5,-,N/A,,Clear,280,2012-10-08 04:54:00
1:54 AM,41.0,39.0,93,30.22,10.0,Calm,Calm,-,N/A,,Clear,0,2012-10-08 05:54:00
2:54 AM,39.9,39.0,97,30.20,10.0,Calm,Calm,-,N/A,,Clear,0,2012-10-08 06:54:00
3:54 AM,39.9,37.9,93,30.22,10.0,West,3.5,-,N/A,,Scattered Clouds,280,2012-10-08 07:54:00
4:54 AM,41.0,39.0,93,30.24,10.0,Calm,Calm,-,N/A,,Mostly Cloudy,0,2012-10-08 08:54:00
5:54 AM,42.1,39.9,92,30.25,10.0,WNW,4.6,-,N/A,,Overcast,290,2012-10-08 09:54:00
6:54 AM,43.0,41.0,93,30.23,10.0,Calm,Calm,-,N/A,,Overcast,0,2012-10-08 10:54:00
7:54 AM,44.1,39.9,85,30.25,10.0,Calm,Calm,-,N/A,,Mostly Cloudy,0,2012-10-08 11:54:00
8:54 AM,45.0,39.9,82,30.27,10.0,North,6.9,-,N/A,,Overcast,10,2012-10-08 12:54:00
9:54 AM,46.0,39.9,79,30.29,10.0,NE,3.5,-,N/A,,Overcast,50,2012-10-08 13:54:00
10:54 AM,46.0,39.9,79,30.29,10.0,NE,5.8,-,N/A,,Overcast,40,2012-10-08 14:54:00
11:54 AM,46.9,41.0,80,30.30,10.0,Calm,Calm,-,0.01,Rain,Light Rain,0,2012-10-08 15:54:00
12:26 PM,46.4,41.0,81,30.29,10.0,Calm,Calm,-,N/A,,Overcast,0,2012-10-08 16:26:00
12:54 PM,46.0,39.9,79,30.29,8.0,Calm,Calm,-,0.00,Rain,Light Rain,0,2012-10-08 16:54:00
1:54 PM,46.0,41.0,83,30.29,10.0,South,3.5,-,0.02,,Overcast,180,2012-10-08 17:54:00
2:51 PM,46.4,41.0,81,30.24,10.0,Calm,Calm,-,N/A,,Overcast,0,2012-10-08 18:51:00
2:54 PM,46.0,41.0,83,30.25,10.0,Calm,Calm,-,N/A,,Overcast,0,2012-10-08 18:54:00
3:28 PM,46.4,41.0,81,30.24,10.0,NW,5.8,-,0.00,Rain,Light Rain,310,2012-10-08 19:28:00
3:54 PM,46.0,43.0,89,30.23,4.0,Variable,3.5,-,0.00,Rain,Light Rain,0,2012-10-08 19:54:00
4:19 PM,46.4,42.8,87,30.22,5.0,NNW,3.5,-,0.01,,Overcast,340,2012-10-08 20:19:00
4:41 PM,46.4,42.8,87,30.21,10.0,Calm,Calm,-,0.01,Rain,Light Rain,0,2012-10-08 20:41:00
4:50 PM,46.4,42.8,87,30.21,10.0,Calm,Calm,-,0.01,,Overcast,0,2012-10-08 20:50:00
4:54 PM,46.0,43.0,89,30.22,10.0,Calm,Calm,-,0.01,,Overcast,0,2012-10-08 20:54:00
5:13 PM,46.4,42.8,87,30.21,8.0,North,5.8,-,0.00,Rain,Light Rain,10,2012-10-08 21:13:00
5:25 PM,46.4,42.8,87,30.21,8.0,North,6.9,-,0.00,Rain,Light Rain,360,2012-10-08 21:25:00
5:54 PM,46.0,42.1,86,30.22,10.0,NNE,4.6,-,0.00,Rain,Light Rain,20,2012-10-08 21:54:00
6:54 PM,46.0,42.1,86,30.22,10.0,NNE,3.5,-,0.00,,Overcast,20,2012-10-08 22:54:00
7:54 PM,46.0,42.1,86,30.23,10.0,Calm,Calm,-,0.00,,Overcast,0,2012-10-08 23:54:00
8:54 PM,46.0,43.0,89,30.23,9.0,East,3.5,-,N/A,,Overcast,90,2012-10-09 00:54:00
9:04 PM,46.4,42.8,87,30.22,7.0,Calm,Calm,-,0.00,Rain,Light Rain,0,2012-10-09 01:04:00
9:26 PM,46.4,44.6,93,30.22,3.0,Calm,Calm,-,0.00,Rain,Light Rain,0,2012-10-09 01:26:00
9:54 PM,45.0,43.0,93,30.24,3.0,Calm,Calm,-,0.01,Rain,Light Rain,0,2012-10-09 01:54:00
10:54 PM,45.0,43.0,93,30.24,3.0,North,4.6,-,0.02,,Overcast,360,2012-10-09 02:54:00
11:54 PM,45.0,42.1,90,30.25,6.0,NE,3.5,-,0.01,,Overcast,40,2012-10-09 03:54:00